Regional Weather Roundup
Issued by NWS

Home | Current Version | Previous Version | Text Only | Print | Product List | Glossary On
Versions: 1 2 3 4 5 6 7 8 9 10 11 12 13 14 15 16 17 18 19 20 21 22 23 24 25 26 27 28 29 30 31 32 33 34 35 36 37 38 39 40 41 42 43 44 45 46 47 48 49 50
000
ASUS43 KTOP 231908
RWRKS

WEATHER ROUNDUP FOR KANSAS
NATIONAL WEATHER SERVICE GOODLAND KS
200 PM CDT THU MAY 23 2019

NOTE:  "FAIR" INDICATES FEW OR NO CLOUDS BELOW 12,000 FEET WITH NO
SIGNIFICANT WEATHER AND/OR OBSTRUCTIONS TO VISIBILITY.

KSZ001>006-013>018-027>032-041>047-232000-
NORTHWEST KANSAS

CITY           SKY/WX    TMP DP  RH WIND       PRES   REMARKS
GOODLAND       CLOUDY    48  44  86 E16       30.04F
HAYS           CLOUDY    56  49  77 NE20      30.00F
HILL CITY      CLOUDY    55  50  83 E20G33    30.04F
RUSSELL        CLOUDY    61  49  64 NE9       30.05S
$$

KSZ061>065-074>080-084>089-232000-
SOUTHWEST KANSAS

CITY           SKY/WX    TMP DP  RH WIND       PRES   REMARKS
DODGE CITY     CLOUDY    59  52  77 E21G31    29.96F
ELKHART        CLOUDY    50  50 100 N15       29.98S FOG
GARDEN CITY    CLOUDY    52  49  89 E24G35    29.90F
GREAT BEND     CLOUDY    64  53  67 E15       30.02F
LIBERAL        CLOUDY    57  55  93 E6G20     29.94R
PRATT          CLOUDY    65  60  82 E12G17    29.99F
$$

KSZ066>073-081>083-090>101-232000-
SOUTHEAST KANSAS

CITY           SKY/WX    TMP DP  RH WIND       PRES   REMARKS
CHANUTE        CLOUDY    74  69  85 E7        30.04F
COFFEYVILLE    MOSUNNY   84  73  69 S15G23    30.00F
HUTCHINSON     CLOUDY    68  60  75 E14       30.00F
MEDICINE LODGE   N/A     69  64  84 E10G20    29.94F
NEWTON         CLOUDY    68  61  78 E12G21    30.02F
PARSONS        PTSUNNY   82  74  76 S8G17     30.03F
WICHITA INTL   CLOUDY    72  64  76 E9        29.99F
WICHITA JABRA  CLOUDY    70  64  81 E13       29.99F
WICHITA MCCONL CLOUDY    73  65  77 E14       29.99F
WINFIELD       PTSUNNY   79  72  79 SE13      29.99F
$$

KSZ007>012-019>026-033>040-048>060-102>105-232000-
NORTHEAST KANSAS

CITY           SKY/WX    TMP DP  RH WIND       PRES   REMARKS
CONCORDIA      CLOUDY    66  49  54 E9        30.07F
EMPORIA        CLOUDY    70  62  76 E14G21    30.04F
LAWRENCE       CLOUDY    74  54  49 E10       30.08F
MANHATTAN      PTSUNNY   73  54  51 E14       30.04F
MARYSVILLE     CLOUDY    68  50  52 E8        30.09S
OLATHE IND     PTSUNNY   73  59  61 E9        30.09F
OLATHE EXE     MOSUNNY   72  60  66 E7G17     30.08F
SALINA         CLOUDY    68  52  56 E8        30.05S
TOPEKA BILLARD PTSUNNY   75  46  35 E13G20    30.07F
TOPEKA FORBES  CLOUDY    73  56  54 E12       30.06F
$$




USA.gov is the U.S. government's official web portal to all federal, state and local government web resources and services.